Pleasantville, NJ

1:29 AM EST on January 20, 2017 (GMT -0500)
Atlantic City International

Weather History for KACY - February, 2014

Change the Weather History Date:

Wednesday, February 26, 2014

  Actual Average Record
Temperature  
Mean Temperature 24 °F 38 °F  
Max Temperature 35 °F 47 °F 71 °F (1890)
Min Temperature 13 °F 28 °F 9 °F (1990)
Degree Days  
Heating Degree Days 41 28  
Month to date heating degree days 827 777  
Since 1 July heating degree days 3775 3538  
Cooling Degree Days 0 0  
Month to date cooling degree days 0 0  
Year to date cooling degree days 0 0  
Moisture  
Dew Point 17 °F    
Average Humidity 61    
Maximum Humidity 91    
Minimum Humidity 31    
Precipitation  
Precipitation 0.01 in 0.11 in 1.53 in (1912)
Month to date precipitation 5.30 2.64  
Year to date precipitation 8.55 5.86  
Snow  
Snow 0.30 in 0.20 in 4.10 in (2010)
Month to date snowfall 6.1 6.4  
Since 1 July snowfall 28.2 14.8  
Snow Depth T in    
Sea Level Pressure  
Sea Level Pressure 29.93 in    
Wind  
Wind Speed 8 mph (West)    
Max Wind Speed 23 mph    
Max Gust Speed 30 mph    
Visibility 6 miles    
Events Snow    
T = Trace of Precipitation, MM = Missing Value Source: NWS Daily Summary

Daily Weather History Graph

Daily Weather History Graph

Search for Another Location

Airport or City:

Trip Planner

Search our weather history database for the weather conditions in past years. The results will help you decide how hot, cold, wet, or windy it might be!

Date:

Astronomy

Feb. 26, 2014 Rise Set
Actual Time 6:35 AM EST 5:47 PM EST
Civil Twilight 6:08 AM EST 6:14 PM EST
Nautical Twilight 5:37 AM EST 6:45 PM EST
Astronomical Twilight 5:06 AM EST 7:16 PM EST
Moon 4:19 AM EST (2/26) 2:59 PM EST (2/26)
Length of Visible Light 12h 05m
Length of Day
11h 11m
Waning Crescent, 10% of the Moon is Illuminated
Feb 26
Waning Crescent
Mar 1
New
Mar 8
First Quarter
Mar 16
Full
Mar 23
Last Quarter

Hourly Weather History & Observations

Time (EST) Temp. Windchill Dew Point Humidity Pressure Visibility Wind Dir Wind Speed Gust Speed Precip Events Conditions
12:54 AM 18.0 °F - 14.0 °F 84% 30.00 in 10.0 mi Calm Calm - N/A   Clear
1:54 AM 21.0 °F - 17.1 °F 85% 30.01 in 10.0 mi Calm Calm - N/A   Clear
2:54 AM 19.9 °F - 17.1 °F 89% 29.99 in 10.0 mi Calm Calm - N/A   Clear
3:54 AM 23.0 °F - 18.0 °F 81% 29.97 in 10.0 mi Calm Calm - N/A   Partly Cloudy
4:54 AM 21.0 °F - 17.1 °F 85% 29.94 in 10.0 mi Calm Calm - N/A   Mostly Cloudy
5:54 AM 26.1 °F 20.5 °F 18.0 °F 71% 29.95 in 10.0 mi West 4.6 mph - N/A   Overcast
6:54 AM 26.1 °F 19.4 °F 19.0 °F 75% 29.94 in 6.0 mi West 5.8 mph - 0.00 in Snow Light Snow
7:16 AM 26.1 °F 21.9 °F 19.9 °F 78% 29.94 in 2.0 mi WSW 3.5 mph - 0.00 in Snow Light Snow
7:54 AM 26.1 °F 21.9 °F 21.0 °F 81% 29.95 in 1.5 mi SSW 3.5 mph - 0.00 in Snow Light Snow
8:54 AM 26.1 °F 18.4 °F 21.9 °F 84% 29.97 in 2.0 mi SW 6.9 mph - 0.00 in Snow Light Snow
9:03 AM 26.1 °F 18.4 °F 21.9 °F 84% 29.97 in 1.5 mi SW 6.9 mph - 0.00 in Snow Light Snow
9:12 AM 26.1 °F 18.4 °F 23.0 °F 88% 29.98 in 1.2 mi SW 6.9 mph - 0.00 in Snow Light Snow
9:19 AM 27.0 °F 19.5 °F 23.0 °F 85% 29.97 in 2.0 mi SW 6.9 mph - 0.00 in Snow Light Snow
9:31 AM 27.0 °F 19.5 °F 23.0 °F 85% 29.98 in 2.0 mi SW 6.9 mph - 0.00 in   Overcast
9:39 AM 27.0 °F 18.0 °F 24.1 °F 89% 29.98 in 1.5 mi SSW 9.2 mph - 0.00 in Snow Light Snow
9:44 AM 27.0 °F 18.0 °F 24.1 °F 89% 29.98 in 0.8 mi SW 9.2 mph - 0.00 in Snow Light Snow
9:54 AM 27.0 °F 18.7 °F 24.1 °F 89% 29.98 in 0.8 mi SW 8.1 mph - 0.00 in Snow Light Snow
10:05 AM 27.0 °F 18.7 °F 24.1 °F 89% 29.97 in 1.2 mi SW 8.1 mph - 0.00 in Snow Light Snow
10:22 AM 28.0 °F 20.0 °F 25.0 °F 88% 29.97 in 0.8 mi SW 8.1 mph - 0.01 in Snow Light Snow
10:33 AM 28.0 °F 20.8 °F 25.0 °F 88% 29.96 in 1.2 mi WSW 6.9 mph - 0.01 in Snow Light Snow
10:42 AM 28.9 °F 19.8 °F 25.0 °F 85% 29.96 in 2.0 mi WSW 10.4 mph - 0.01 in Snow Light Snow
10:54 AM 28.9 °F 21.9 °F 25.0 °F 85% 29.95 in 1.8 mi WSW 6.9 mph - 0.01 in Snow Light Snow
11:12 AM 30.0 °F 21.1 °F 25.0 °F 82% 29.94 in 2.5 mi West 10.4 mph - 0.00 in Snow Light Snow
11:33 AM 30.9 °F 21.7 °F 26.1 °F 82% 29.92 in 5.0 mi WSW 11.5 mph - 0.00 in Snow Light Snow
11:54 AM 30.9 °F 20.7 °F 25.0 °F 79% 29.91 in 10.0 mi West 13.8 mph 21.9 mph 0.00 in   Overcast
12:42 PM 28.0 °F 14.9 °F 23.0 °F 81% 29.89 in 2.0 mi WNW 19.6 mph 28.8 mph 0.00 in Snow Light Snow
12:54 PM 30.9 °F 20.2 °F 23.0 °F 72% 29.88 in 7.0 mi West 15.0 mph - 0.00 in Snow Light Snow
1:03 PM 32.0 °F 21.6 °F 23.0 °F 69% 29.87 in 10.0 mi WNW 15.0 mph - 0.00 in   Mostly Cloudy
1:54 PM 34.0 °F 22.7 °F 21.9 °F 61% 29.85 in 10.0 mi NW 19.6 mph 25.3 mph 0.00 in   Overcast
2:54 PM 33.1 °F 20.9 °F 12.0 °F 42% 29.84 in 10.0 mi NW 21.9 mph 27.6 mph N/A   Mostly Cloudy
3:54 PM 33.1 °F 21.2 °F 10.0 °F 38% 29.84 in 10.0 mi NW 20.7 mph 27.6 mph N/A   Clear
4:54 PM 30.0 °F 17.9 °F 3.0 °F 32% 29.85 in 10.0 mi NW 18.4 mph - N/A   Clear
5:54 PM 26.1 °F 15.6 °F 1.9 °F 35% 29.86 in 10.0 mi WNW 11.5 mph - N/A   Clear
6:54 PM 23.0 °F 14.7 °F 3.0 °F 42% 29.88 in 10.0 mi WNW 6.9 mph - N/A   Clear
7:54 PM 24.1 °F 16.0 °F 1.0 °F 37% 29.89 in 10.0 mi West 6.9 mph - N/A   Clear
8:54 PM 21.9 °F 17.2 °F 1.9 °F 42% 29.91 in 10.0 mi West 3.5 mph - N/A   Clear
9:54 PM 19.0 °F 12.3 °F 3.9 °F 52% 29.92 in 10.0 mi WNW 4.6 mph - N/A   Clear
10:54 PM 16.0 °F 10.4 °F 3.9 °F 59% 29.91 in 10.0 mi WNW 3.5 mph - N/A   Clear
11:54 PM 14.0 °F 8.2 °F 3.9 °F 64% 29.90 in 10.0 mi NNE 3.5 mph - N/A   Clear